カタログに戻る

STARLINK-5685

運用中通信VLEO
NORAD 55477·PAYLOAD·🇺🇸 United States

打ち上げ Feb 2, 2023 から Cape Canaveral Space Force Station

Loading…

次のパス (今後24時間)

TLE

最新Source: CelesTrak SupGP

元期: Sep 14, 2026, 21:46 UTC

1 55477C 23015AE  26257.90743056 -.00032984  00000+0 -11946-2 0  2572
2 55477  43.0011 332.6178 0001448 269.3002 172.0436 15.27595788    19

AllMySatでSTARLINK-5685をリアルタイム追跡

Download on the App Store